When you browse on this site, cookies collect data to enhance your experience and personalize the content and advertising you see.
Visit our Privacy Policy to learn more. By continuing to use the site, you agree to this use of cookies and data.
  • In Hungary
  • List of Countries
  • For 7 days
  • Water Temperature
  • Weather Map
  • News
  • Weather Widgets
  • user-avatar
    Login

    Hourly Weather Mininskie Dvory

    Today, 24 January, Friday

    Time Temperature Precipitation Wind Pressure Humidity
    00:00 -5°C° 0 mm 3 mps 739 mmHg 78%
    01:00 -5°C° 0 mm 3 mps 739 mmHg 82%
    02:00 -5°C° 0 mm 4 mps 738 mmHg 87%
    03:00 -4°C° 0.1 mm 4 mps 737 mmHg 88%
    04:00 -4°C° 0.1 mm 4 mps 736 mmHg 89%
    05:00 -5°C° 0.1 mm 5 mps 735 mmHg 91%
    06:00 -5°C° 0.2 mm 5 mps 735 mmHg 91%
    07:00 -4°C° 0.2 mm 5 mps 734 mmHg 92%
    08:00 -4°C° 0 mm 5 mps 733 mmHg 92%
    09:00 -2°C° 0.1 mm 5 mps 733 mmHg 93%
    10:00 -1°C° 0.1 mm 5 mps 733 mmHg 94%
    11:00 -1°C° 0.1 mm 6 mps 733 mmHg 95%
    12:00 0°C° 0 mm 5 mps 732 mmHg 93%
    13:00 0°C° 0 mm 5 mps 731 mmHg 92%
    14:00 0°C° 0 mm 5 mps 731 mmHg 90%
    15:00 0°C° 0.2 mm 5 mps 731 mmHg 92%
    16:00 0°C° 0.2 mm 5 mps 730 mmHg 94%
    17:00 0°C° 0.2 mm 5 mps 730 mmHg 96%
    18:00 0°C° 0.1 mm 5 mps 730 mmHg 96%
    19:00 0°C° 0.1 mm 4 mps 730 mmHg 96%
    20:00 0°C° 0.1 mm 4 mps 729 mmHg 96%
    21:00 +1°C° 0.3 mm 5 mps 729 mmHg 94%
    22:00 +1°C° 0.3 mm 5 mps 729 mmHg 92%
    23:00 +1°C° 0.3 mm 6 mps 729 mmHg 90%

    Tomorrow, 25 January, Saturday

    Time Temperature Precipitation Wind Pressure Humidity
    00:00 0°C° 0.1 mm 5 mps 729 mmHg 90%
    01:00 0°C° 0.1 mm 5 mps 730 mmHg 90%
    02:00 -1°C° 0.1 mm 4 mps 730 mmHg 89%
    03:00 -1°C° 0 mm 4 mps 730 mmHg 88%
    04:00 -1°C° 0 mm 4 mps 730 mmHg 88%
    05:00 -1°C° 0 mm 4 mps 730 mmHg 87%
    06:00 -1°C° 0 mm 4 mps 729 mmHg 87%
    07:00 -1°C° 0 mm 5 mps 729 mmHg 87%
    08:00 -1°C° 0 mm 5 mps 729 mmHg 87%
    09:00 -2°C° 0 mm 6 mps 728 mmHg 84%
    10:00 -1°C° 0 mm 6 mps 728 mmHg 81%
    11:00 -1°C° 0 mm 7 mps 728 mmHg 78%
    12:00 -1°C° 0.1 mm 7 mps 728 mmHg 74%
    13:00 -2°C° 0.1 mm 7 mps 728 mmHg 70%
    14:00 -2°C° 0.1 mm 7 mps 728 mmHg 65%
    15:00 -3°C° 0 mm 7 mps 729 mmHg 67%
    16:00 -4°C° 0 mm 6 mps 730 mmHg 69%
    17:00 -4°C° 0 mm 6 mps 730 mmHg 70%
    18:00 -4°C° 0 mm 6 mps 731 mmHg 71%
    19:00 -5°C° 0 mm 6 mps 731 mmHg 71%
    20:00 -5°C° 0 mm 6 mps 731 mmHg 72%
    21:00 -5°C° 0 mm 6 mps 732 mmHg 73%
    22:00 -5°C° 0 mm 6 mps 733 mmHg 75%
    23:00 -6°C° 0 mm 7 mps 733 mmHg 77%

    Day after tomorrow, 26 January, Sunday

    Time Temperature Precipitation Wind Pressure Humidity
    00:00 -5°C° 0 mm 6 mps 734 mmHg 76%
    01:00 -5°C° 0 mm 6 mps 735 mmHg 75%
    02:00 -5°C° 0 mm 5 mps 736 mmHg 74%
    03:00 -5°C° 0 mm 5 mps 737 mmHg 76%
    04:00 -4°C° 0 mm 4 mps 737 mmHg 78%
    05:00 -5°C° 0 mm 4 mps 738 mmHg 80%
    06:00 -5°C° 0 mm 4 mps 738 mmHg 81%
    07:00 -5°C° 0 mm 4 mps 739 mmHg 83%
    08:00 -5°C° 0 mm 3 mps 739 mmHg 84%
    09:00 -5°C° 0 mm 3 mps 739 mmHg 81%
    10:00 -4°C° 0 mm 3 mps 740 mmHg 78%
    11:00 -2°C° 0 mm 3 mps 740 mmHg 76%
    12:00 -3°C° 0 mm 4 mps 739 mmHg 77%
    13:00 -3°C° 0 mm 4 mps 739 mmHg 79%
    14:00 -2°C° 0 mm 5 mps 739 mmHg 81%
    15:00 -2°C° 0.2 mm 5 mps 738 mmHg 86%
    16:00 -2°C° 0.2 mm 5 mps 738 mmHg 91%
    17:00 -2°C° 0.2 mm 6 mps 737 mmHg 96%
    18:00 -1°C° 0.3 mm 6 mps 737 mmHg 95%
    19:00 -1°C° 0.3 mm 6 mps 737 mmHg 95%
    20:00 +1°C° 0.3 mm 6 mps 737 mmHg 95%
    21:00 +1°C° 0.1 mm 5 mps 737 mmHg 94%
    22:00 +1°C° 0.1 mm 5 mps 737 mmHg 94%
    23:00 +1°C° 0.1 mm 5 mps 738 mmHg 93%

    27 January, Monday

    Time Temperature Precipitation Wind Pressure Humidity
    00:00 +1°C° 0 mm 5 mps 738 mmHg 93%
    01:00 0°C° 0 mm 5 mps 738 mmHg 94%
    02:00 0°C° 0 mm 5 mps 738 mmHg 94%
    03:00 0°C° 0 mm 5 mps 738 mmHg 95%
    04:00 0°C° 0 mm 5 mps 738 mmHg 96%
    05:00 0°C° 0 mm 5 mps 738 mmHg 96%
    06:00 0°C° 0 mm 4 mps 738 mmHg 96%
    07:00 0°C° 0 mm 4 mps 738 mmHg 96%
    08:00 0°C° 0 mm 4 mps 738 mmHg 96%
    09:00 0°C° 0.1 mm 4 mps 738 mmHg 96%
    10:00 +1°C° 0.1 mm 3 mps 739 mmHg 96%
    11:00 +1°C° 0.1 mm 3 mps 739 mmHg 96%
    12:00 +1°C° 0.1 mm 3 mps 739 mmHg 97%
    13:00 +1°C° 0.1 mm 3 mps 739 mmHg 97%
    14:00 +1°C° 0.1 mm 3 mps 739 mmHg 97%
    15:00 +1°C° 0 mm 3 mps 739 mmHg 97%
    16:00 +1°C° 0 mm 3 mps 738 mmHg 97%
    17:00 0°C° 0 mm 3 mps 738 mmHg 97%
    18:00 0°C° 0.1 mm 3 mps 738 mmHg 97%
    19:00 0°C° 0.1 mm 3 mps 738 mmHg 97%
    20:00 0°C° 0.1 mm 3 mps 738 mmHg 97%
    21:00 0°C° 0.1 mm 3 mps 738 mmHg 97%
    22:00 0°C° 0.1 mm 3 mps 738 mmHg 97%
    23:00 +1°C° 0.1 mm 2 mps 738 mmHg 97%

    28 January, Tuesday

    Time Temperature Precipitation Wind Pressure Humidity
    00:00 +1°C° 0.1 mm 2 mps 738 mmHg 98%
    01:00 +1°C° 0.1 mm 2 mps 738 mmHg 98%
    02:00 +1°C° 0.1 mm 2 mps 738 mmHg 98%
    03:00 +1°C° 0 mm 2 mps 738 mmHg 98%
    04:00 +1°C° 0 mm 2 mps 738 mmHg 98%
    05:00 +1°C° 0 mm 2 mps 738 mmHg 98%
    06:00 +1°C° 0 mm 1 mps 738 mmHg 98%
    07:00 +1°C° 0 mm 1 mps 738 mmHg 98%
    08:00 +1°C° 0 mm 1 mps 738 mmHg 98%
    09:00 +1°C° 0 mm 1 mps 738 mmHg 96%
    10:00 +1°C° 0 mm 1 mps 738 mmHg 95%
    11:00 +1°C° 0 mm 1 mps 738 mmHg 94%
    12:00 +1°C° 0 mm 1 mps 738 mmHg 93%
    13:00 +2°C° 0 mm 1 mps 738 mmHg 92%
    14:00 +1°C° 0 mm 2 mps 738 mmHg 91%
    15:00 -1°C° 0 mm 2 mps 738 mmHg 91%
    16:00 -1°C° 0 mm 2 mps 738 mmHg 91%
    17:00 -1°C° 0 mm 2 mps 738 mmHg 92%
    18:00 -1°C° 0 mm 2 mps 738 mmHg 92%
    19:00 -1°C° 0 mm 2 mps 738 mmHg 92%
    20:00 -1°C° 0 mm 2 mps 738 mmHg 92%
    21:00 -1°C° 0 mm 2 mps 737 mmHg 92%
    22:00 -1°C° 0 mm 2 mps 737 mmHg 92%
    23:00 -1°C° 0 mm 3 mps 737 mmHg 92%

    29 January, Wednesday

    Time Temperature Precipitation Wind Pressure Humidity
    00:00 -1°C° 0 mm 3 mps 737 mmHg 93%
    01:00 -1°C° 0 mm 3 mps 737 mmHg 94%
    02:00 -1°C° 0 mm 3 mps 736 mmHg 95%
    03:00 -1°C° 0 mm 3 mps 736 mmHg 95%
    04:00 -1°C° 0 mm 3 mps 736 mmHg 95%
    05:00 -1°C° 0 mm 4 mps 736 mmHg 96%
    06:00 -1°C° 0 mm 4 mps 735 mmHg 95%
    07:00 -1°C° 0 mm 4 mps 735 mmHg 95%
    08:00 -1°C° 0 mm 4 mps 735 mmHg 94%
    09:00 -1°C° 0 mm 4 mps 735 mmHg 92%
    10:00 -1°C° 0 mm 4 mps 735 mmHg 91%
    11:00 -1°C° 0 mm 5 mps 734 mmHg 89%
    12:00 -1°C° 0 mm 5 mps 734 mmHg 88%
    13:00 -1°C° 0 mm 5 mps 734 mmHg 88%
    14:00 -1°C° 0 mm 5 mps 733 mmHg 87%
    15:00 -1°C° 0 mm 5 mps 733 mmHg 90%
    16:00 -1°C° 0 mm 4 mps 733 mmHg 93%
    17:00 -1°C° 0 mm 4 mps 732 mmHg 96%
    18:00 -1°C° 0.3 mm 4 mps 732 mmHg 96%
    19:00 -1°C° 0.3 mm 5 mps 732 mmHg 96%
    20:00 -1°C° 0.3 mm 5 mps 731 mmHg 96%
    21:00 -1°C° 0.5 mm 5 mps 731 mmHg 96%
    22:00 -1°C° 0.5 mm 5 mps 731 mmHg 96%
    23:00 -1°C° 0.5 mm 5 mps 730 mmHg 96%
    Show more